Tracking 30157 objects as of 13-Feb-2025
HD Live streaming from Space Station
objects crossing your sky now

STARLINK-11491

Track STARLINK-11491 now!
10-day predictions
STARLINK-11491 is classified as:


NORAD ID: 62269
Int'l Code: 2024-237C
Perigee: 361.3 km
Apogee: 366.0 km
Inclination: 43.0 °
Period: 91.7 minutes
Semi major axis: 6734 km
RCS: Unknown
Launch date: December 8, 2024
Source: United States (US)
Launch site: AIR FORCE EASTERN TEST RANGE (AFETR)
Your satellite tracking list
Your tracking list is empty




NASA's NSSDC Master Catalog

Two Line Element Set (TLE):
1 62269U 24237C   25043.85698415  .00002314  00000-0  21536-4 0  9994
2 62269  43.0036 246.2213 0003505 263.6858  96.3611 15.70841767 11738
Source of the keplerian elements: AFSPC